CZ-6A DEB

Satellite information

Favourite Embed

Satellite Type and Status

DEBRISIN ORBIT

Key statistics

Satellite CZ-6A DEB at a glance.

Uptime

969

Days in orbit

Revolutions

≈ 14.6

Per day

Orbit

SSO

Sun Synchronous Orbit

Inclination

98.9

Latest

Satellite identification and parameters

Extended collection of information and parameters for CZ-6A DEB.

Object identification

Identified? True

Debris? True

Object name: CZ-6A DEB

International designator: 2022-151AV

Object number (NORAD): 54302

Object ID (CCSDS): 54302

Country: PEOPLES REPUBLIC OF CHINA (PRC)

Current information (Y/N): Y

RCS size: SMALL

Orbital parameters

Period: 98.381 minutes

Inclination: 98.8762 deg

SMA: 7059.41 km

Apoapsis: 757.894 km

Periapsis: 604.656 km

RAAN: 273.0583 deg

Eccentricy: 0.0108535

Argument of periapsis: 188.7352 deg

Mean anomaly: 171.1962 deg

Mean motion: 14.63693579 rev/day

Mean motion (dot): 0.00005623 rev/day2

B* drag term: 0.0010018 1/REarth

Two-line elements (TLE)

Creation date: July 6, 2025, 10:36 p.m.

Reference frame: TEME

Reference center: EARTH

Epoch: July 6, 2025, 6:44 p.m. UTC

TLE line 0: 0 CZ-6A DEB

TLE line 1: 1 54302U 22151AV 25187.78082856 .00005623 00000-0 10018-2 0 9990

TLE line 2: 2 54302 98.8762 273.0583 0108535 188.7352 171.1962 14.63693579140061

Live tracking on map

Real-time ground track for satellite CZ-6A DEB.

In-orbit conjunctions

A list of the most updated potential collisions computed for object CZ-6A DEB.

Target Orbit TCA Probability of collision Miss distance Type
COSMOS 2251 DEB LEO 2025-05-28 00:38:45 0.0001547835 196.0 (m) DEBRIS
COSMOS 1190 LEO 2024-09-05 18:45:58 0.0001154372 728.0 (m) PAYLOAD
LIBERTAD 1 SSO 2024-06-06 06:01:47 0.0004161848 826.0 (m) PAYLOAD

Associated space launch

Chinese satellite reported for atmospheric/ocean/environmental/spatial parameter research purposes, details TBD.

CZ-6A DEB was lifted into orbit during the mission ‘Long March 6A | Yunhai 3’, on board a Long March 6A space rocket.

The launch took place on Nov. 11, 2022, 10:52 p.m. from Launch Complex 9A.

For more information about the launch, click the button.

Launch to space Long March 6A | Yunhai 3
Long March 6A | Yunhai 3

Agency: N/A

Status: Launch Successful

Launch date: Nov. 11, 2022, 10:52 p.m. UTC

Rocket: Long March 6A

Launch pad: Launch Complex 9A

Location: Taiyuan Satellite Launch Center, People's Republic of China

...

Latest news about this satellite

There are no fresh news available about this satellite. Check back as we update our databases every day.


Newsletter sign-up

Weekly statistics, charts and insights to help you stay on top of the space industry.